Terminal Aerodrome Forecast
Issued by NWS Los Angeles, CA

Home | Current Version | Previous Version | Text Only | Print | Product List | Glossary On
Versions: 1 2 3 4 5 6 7 8 9 10 11 12 13 14 15 16 17 18 19 20 21 22 23 24
000
FTUS46 KLOX 230500
TAFSMX
TAF
KSMX 230529Z 2306/2406 VRB03KT P6SM SKC
     FM231600 31012G20KT P6SM SKC
     FM231900 30022G32KT P6SM SKC
     FM240200 34012KT P6SM SKC
     FM240500 VRB03KT P6SM SKC=

USA.gov is the U.S. government's official web portal to all federal, state and local government web resources and services.